WGS F4 (USA 233)

Last updated on Thu Oct 30 2025 00:02:49 GMT+0000 (Coordinated Universal Time)

1 38070U 12003A 25302.22753043 -.00000203 00000+0 00000+0 0 9996 2 38070 0.0141 231.3161 0000799 275.1250 61.7139 1.00262753 41839
UTC large
Height (km)
Speed (km/s)
/
Latitude / Longitude
Inclination (degrees)
Orbital Period (minutes)
Azimuth
Elevation
Range (km)
Doppler Factor

Next 0 passes for location: London (51.5072 / 0.1276)

Sorry there are no passes over London.